Regional Weather Roundup
Issued by NWS Grand Forks, ND

Home | Current Version | Previous Version | Graphics & Text | Print | Product List | Glossary On
Versions: 1 2 3 4 5 6 7 8 9 10 11 12 13 14 15 16 17 18 19 20 21 22 23 24 25 26 27 28 29 30 31 32 33 34 35 36 37 38 39 40 41 42 43 44 45 46 47 48 49 50
000
ASUS43 KFGF 140610
RWRFGF
PRAIRIE TO PINES  WEATHER ROUNDUP
NATIONAL WEATHER SERVICE EASTERN NORTH DAKOTA/GRAND FORKS ND
100 AM CDT MON JUL 14 2014

 **SATELLITE DATA USED TO AUGMENT SKY COVER AT AUTOMATED STATIONS**
 *****  WEATHER ACROSS EASTERN NORTH DAKOTA  *****

CITY           SKY/WX    TMP DP  RH WIND       PRES   REMARKS
GRAND FORKS    LGT RAIN  53  52  96 NW9       29.96S
6HR MIN TEMP:  53; 6HR MAX TEMP:  65; 6HR PCP: TRACE;

GRAND FRKS AFB MOCLDY    54  54  99 NW13      29.98S
GRAND FRKS NWS   N/A     52 N/A N/A N6          N/A
DEVILS LAKE    MOCLDY    57  45  62 N22G30    30.02R
6HR MIN TEMP:  57; 6HR MAX TEMP:  64;

FARGO          MOCLDY    61  46  57 NW17      29.96R
WAHPETON ARPT  CLOUDY    61  45  55 NW9       29.97S
$$

 ***** WEATHER ACROSS CENTRAL AND WESTERN NORTH DAKOTA  *****

CITY           SKY/WX    TMP DP  RH WIND       PRES   REMARKS
BISMARCK       MOCLDY    59  47  64 NW7       30.11R
6HR MIN TEMP:  59; 6HR MAX TEMP:  74;

MINOT          PTCLDY    56  44  64 N12       30.12R
6HR MIN TEMP:  56; 6HR MAX TEMP:  69;

JAMESTOWN      CLOUDY    60  44  55 N16       30.03R
6HR MIN TEMP:  60; 6HR MAX TEMP:  70;

MINOT AFB      CLEAR     56  47  71 NW15      30.13R
GARRISON         N/A     50  48  93 NW7       30.13R
WILLISTON      CLEAR     56  46  69 N8        30.20R
6HR MIN TEMP:  56; 6HR MAX TEMP:  76;

DICKINSON      CLEAR     52  44  74 N7        30.18R
6HR MIN TEMP:  50; 6HR MAX TEMP:  73;

HETTINGER      CLEAR     52  43  71 N7        30.19R
6HR MIN TEMP:  52; 6HR MAX TEMP:  75;

$$

 *****  OTHER AIRPORT OBSERVATIONS IN OUR AREA  *****

CITY           SKY/WX    TMP DP  RH WIND       PRES   REMARKS
WALHALLA         N/A     50  50 100 N14G23      N/A
GRAFTON AIRPOR LGT RAIN  52  52 100 NW16G25   29.97R
VALLEY CITY AR CLOUDY    59  48  67 NW12      30.01S
CANDO          MOCLDY    54  48  82 NW15      30.05S
CAVALIER APRT  MOCLDY    52  48  87 N15G22    29.98R
GWINNER        CLOUDY    63  46  55 N9        30.02R
SHEYENNE NWR     N/A     62  45  53 NW8       29.95
ROLLA          MOCLDY    54  48  82 N22G31    30.07R
 ***** THE ABOVE OBSERVATIONS ARE NON NWS ARE NOT QUALITY
       CONTROLLED AND MAY MIS-REPORT RAIN FOR SNOW...
$$

  *****  WEATHER ACROSS NORTHERN MINNESOTA  *****

CITY           SKY/WX    TMP DP  RH WIND       PRES   REMARKS
FLAG ISLAND    CLOUDY    52  48  87 NW18      29.84R
WARROAD        MOCLDY    48  45  87 NW12G17   29.89R
ROSEAU         MOCLDY    48  45  87 NW12      29.90R
HALLOCK        MOCLDY    52  48  87 N15G23    29.95R
THF RVR FALLS  CLOUDY    52  48  87 NW10      29.93S
6HR MIN TEMP:  52; 6HR MAX TEMP:  63;

BAUDETTE       CLOUDY    50  49  96 NW7       29.84S
6HR MIN TEMP:  50; 6HR MAX TEMP:  57; 6HR PCP:  0.18;

WASKISH        LGT RAIN  52  48  87 W16G22    29.86S
CROOKSTON      LGT RAIN  52  50  93 NW15      29.96S
$$
  *****  WEATHER ACROSS CENTRAL AND WEST MINNESOTA  *****

CITY           SKY/WX    TMP DP  RH WIND       PRES   REMARKS
FOSSTON        DRIZZLE   50  48  93 NW10      29.93R
BEMIDJI        LGT RAIN  51  49  93 NW17G25   29.89R
PARK RAPIDS    CLOUDY    57  47  69 NW12      29.90F
6HR MIN TEMP:  55; 6HR MAX TEMP:  66; 6HR PCP: TRACE;

ELBOW LAKE     NOT AVBL
WADENA         CLOUDY    55  48  76 CALM      29.92S
DETROIT LAKES  MOCLDY    59  48  67 NW14      29.94S
MOORHEAD       CLOUDY    63  46  55 NW14      29.96S
FERGUS FALLS   CLOUDY    61  45  55 NW12G17   29.96R
MORRIS MN      CLOUDY    57  52  82 W6        29.95F
STAPLES        PTCLDY    54  48  82 W5        29.92S
$$
  *****  WEATHER ELSEWHERE ACROSS MINNESOTA  *****

CITY           SKY/WX    TMP DP  RH WIND       PRES   REMARKS
DULUTH         CLEAR     50  47  89 W7        29.85F
6HR MIN TEMP:  50; 6HR MAX TEMP:  66; 6HR PCP: TRACE;

INTRNTL FALLS  LGT RAIN  50  49  96 W6        29.80S
6HR MIN TEMP:  50; 6HR MAX TEMP:  57; 6HR PCP:  0.04;

ELY            CLOUDY    52  48  87 SW6       29.81F
CLOQUET        CLEAR     52  48  87 W3        29.87S
WHEATON        CLOUDY    61  50  67 W5        29.99S
BRAINERD       MOCLDY    62  48  60 NW6       29.91F
6HR MIN TEMP:  62; 6HR MAX TEMP:  74; 6HR PCP:  0.04;

HIBBING        PTCLDY    52  48  86 W3        29.83F
6HR MIN TEMP:  52; 6HR MAX TEMP:  63; 6HR PCP: TRACE;

ALEXANDRIA     CLOUDY    62  49  62 NW10      29.95S
6HR MIN TEMP:  61; 6HR MAX TEMP:  72;

SAINT CLOUD    PTCLDY    60  49  66 NW5       29.91S
6HR MIN TEMP:  60; 6HR MAX TEMP:  75;

MINNEAPOLIS    MOCLDY    64  50  60 NW8       29.90S
6HR MIN TEMP:  63; 6HR MAX TEMP:  75;

$$

  *****  WEATHER ACROSS SOUTH DAKOTA  *****

CITY           SKY/WX    TMP DP  RH WIND       PRES   REMARKS
SIOUX FALLS    CLEAR     58  48  69 NW9       30.00S
6HR MIN TEMP:  58; 6HR MAX TEMP:  80;

BROOKINGS      NOT AVBL
WATERTOWN      CLEAR     60  50  69 NW8       30.00F
6HR MIN TEMP:  60; 6HR MAX TEMP:  73;

HURON          CLEAR     53  48  83 NW6       30.02F
6HR MIN TEMP:  53; 6HR MAX TEMP:  77;

SISSETON         N/A     61  50  67 NW9       29.98S
ABERDEEN       CLEAR     54  46  74 NW9       30.03S
6HR MIN TEMP:  53; 6HR MAX TEMP:  75;

MITCHELL       CLEAR     58  49  72 NW8       30.04R
PIERRE         CLEAR     58  49  72 N7        30.08R
6HR MIN TEMP:  58; 6HR MAX TEMP:  78;

MOBRIDGE       CLEAR     51  48  89 N6        30.08R
RAPID CITY     CLEAR     57  52  83 NW8       30.19S
6HR MIN TEMP:  57; 6HR MAX TEMP:  83;

$$

  *****  SOME WEATHER IN NEARBY STATES *****

CITY           SKY/WX    TMP DP  RH WIND       PRES   REMARKS
GLASGOW MT     CLEAR     55  42  61 NE13      30.25R
6HR MIN TEMP:  54; 6HR MAX TEMP:  81;

GREAT FALLS MT PTCLDY    68  47  46 E12       30.26R
6HR MIN TEMP:  68; 6HR MAX TEMP:  88;

CHEYENNE WY    CLEAR     61  54  77 W10       30.32S
6HR MIN TEMP:  61; 6HR MAX TEMP:  78;

SCOTTSBLUFF NE PTCLDY    71  58  63 NE13      30.18R
6HR MIN TEMP:  68; 6HR MAX TEMP:  86;

OMAHA NE       CLEAR     73  68  84 CALM      29.97S
6HR MIN TEMP:  72; 6HR MAX TEMP:  83; 6HR PCP: TRACE;

DES MOINES IA  PTCLDY    73  66  78 CALM      29.93S
6HR MIN TEMP:  72; 6HR MAX TEMP:  84;

DAVENPORT IA     N/A     65  62  90 S3        29.93S
6HR MIN TEMP:  64; 6HR MAX TEMP:  76;

CHICAGO IL     PTCLDY    70  50  49 W8        29.91R
6HR MIN TEMP:  70; 6HR MAX TEMP:  81; 6HR PCP:  0.01;

EAU CLAIRE WI  CLEAR     58  53  84 SW6       29.86F
6HR MIN TEMP:  57; 6HR MAX TEMP:  73;

LA CROSSE WI   CLEAR     63  58  83 S6        29.89S
6HR MIN TEMP:  62; 6HR MAX TEMP:  77;

$$

  *****  SOME NATIONAL WEATHER *****

CITY           SKY/WX    TMP DP  RH WIND       PRES   REMARKS
LA GUARDIA NY  LGT RAIN  72  69  90 S3        29.89F
6HR MIN TEMP:  72; 6HR MAX TEMP:  78; 6HR PCP:  0.40;

RALEIGH NC     PTCLDY    78  70  76 SW12      30.02F
6HR MIN TEMP:  78; 6HR MAX TEMP:  87;

ATLANTA GA     PTCLDY    76  70  82 SW5       30.07F
6HR MIN TEMP:  76; 6HR MAX TEMP:  86; 6HR PCP: TRACE;

NEW ORLEANS LA PTCLDY    78  73  84 SE5       30.04R
6HR MIN TEMP:  78; 6HR MAX TEMP:  83;

OKLAHOMA CITY  MOCLDY    78  65  63 CALM      30.00S
6HR MIN TEMP:  78; 6HR MAX TEMP:  95;

ALBUQUERQUE NM CLOUDY    74  54  49 NW8       30.28R
6HR MIN TEMP:  71; 6HR MAX TEMP:  79;

SALT LAKE CITY MOCLDY    80  47  31 S5        30.09R
6HR MIN TEMP:  80; 6HR MAX TEMP:  98;

LOS ANGELES CA MOCLDY    71  63  75 VRB7      29.93R
6HR MIN TEMP:  71; 6HR MAX TEMP:  76;

BOISE ID       MOCLDY    87  51  28 W6        29.95R



USA.gov is the U.S. government's official web portal to all federal, state and local government web resources and services.